Regional Weather Roundup
Issued by NWS Nashville, TN

Home | Current Version | Previous Version | Text Only | Print | Product List | Glossary On
Versions: 1 2 3 4 5 6 7 8 9 10 11 12 13 14 15 16 17 18 19 20 21 22 23 24 25 26 27
000
ASUS44 KOHX 250210
RWROHX
MIDDLE TENNESSEE HOURLY WEATHER ROUNDUP
NATIONAL WEATHER SERVICE NASHVILLE TN
800 PM CST TUE JAN 24 2017

NOTE: "FAIR" INDICATES FEW OR NO CLOUDS BELOW 12,000 FEET WITH
NO SIGNIFICANT WEATHER AND/OR OBSTRUCTIONS TO VISIBILITY.

* THESE REPORTS ARE NOT UNDER NWS QUALITY CONTROL AND MAY NOT
  REPORT WEATHER SUCH AS PRECIPITATION AND FOG.


TNZ005>011-023>034-057-059-062>066-078-080-250300
...NORTHERN MIDDLE TENNESSEE...

CITY           SKY/WX    TMP DP  RH WIND       PRES   REMARKS
CLARKSVILLE    CLEAR     47  34  60 SE9       29.79F
CROSSVILLE     CLEAR     36  34  92 CALM      29.86F
GALLATIN       CLEAR     41  36  81 CALM      29.87F
DICKSON        CLEAR     49  33  54 SE8       29.78F
LEBANON        CLEAR     40  35  82 CALM      29.82
NASHVILLE      CLEAR     47  35  63 S6        29.83F
PORTLAND       CLEAR     45  36  70 SE7       29.83F
SMYRNA         CLEAR     44  37  76 SE5       29.85F
SPRINGFIELD    CLEAR     45  36  70 SE9       29.78F
WEST NASHVILLE CLEAR     48  36  61 E7        29.80F
$$
TNZ056-058-060-061-075>077-079-093>097-250300
...SOUTHERN MIDDLE TENNESSEE...

CITY           SKY/WX    TMP DP  RH WIND       PRES   REMARKS
COLUMBIA       CLEAR     48  37  66 S5        29.80F
FAYETTEVILLE   CLEAR     46  37  71 SE7       29.86F
MCMINNVILLE    CLEAR     39  37  93 CALM        N/A
MURFREESBORO   CLEAR     44  37  76 SE6       29.84F
SHELBYVILLE    CLEAR     45  37  76 SE7       29.86F
TULLAHOMA      CLEAR     45  36  70 SE5       29.86F
WINCHESTER     CLEAR     37  36  93 CALM      29.86F
$$


...KEY TO REMARKS...
VSB - VISIBILITY IN MILES
WCI - WIND CHILL INDEX
HX  - HEAT INDEX





USA.gov is the U.S. government's official web portal to all federal, state and local government web resources and services.